Regional Weather Roundup
Issued by NWS Mobile, AL

Home | Current Version | Previous Version | Text Only | Print | Product List | Glossary On
Versions: 1 2 3 4 5 6 7 8 9 10 11 12 13 14 15 16 17 18 19 20 21 22 23 24 25 26 27 28 29 30 31 32 33 34 35 36 37 38 39 40 41 42 43 44 45 46 47 48 49 50
000
ASUS44 KMOB 110612
RWRMOB
REGIONAL WEATHER ROUNDUP
NATIONAL WEATHER SERVICE MOBILE AL
1200 AM CST MON DEC 11 2017

NOTE: "FAIR" INDICATES FEW OR NO CLOUDS BELOW 12,000 FEET WITH NO
      SIGNIFICANT WEATHER AND/OR OBSTRUCTIONS TO VISIBILITY.

  * THESE STATIONS ARE PART OF THE UNIVERSITY OF SOUTH ALABAMA
    MESONET AND ARE NOT UNDER NWS OR FAA QUALITY CONTROL.

ALZ061>064-110700-
COASTAL ALABAMA

CITY           SKY/WX    TMP DP  RH WIND       PRES   REMARKS
MOBILE REG APT CLEAR     36  34  92 CALM      30.31F
6HR MIN TEMP:  36; 6HR MAX TEMP:  45;

BROOKLEY FIELD CLEAR     37  37 100 SW3       30.33F
6HR MIN TEMP:  37; 6HR MAX TEMP:  47;

USA CAMPUS*    NOT AVBL
DOG RIVER*     NOT AVBL


CITY           SKY/WX    TMP DP  RH WIND       PRES   REMARKS
GULF SHORES    CLEAR     33  33 100 CALM      30.32F

$$

ALZ051>060-110700-
INTERIOR SOUTHWEST AND SOUTH CENTRAL ALABAMA

CITY           SKY/WX    TMP DP  RH WIND       PRES   REMARKS
GREENVILLE     CLEAR     35  29  78 SW5       30.29S WCI  31
6HR MIN TEMP:  31; 6HR MAX TEMP:  39;

EVERGREEN      CLEAR     31  28  89 CALM      30.31F
6HR MIN TEMP:  30; 6HR MAX TEMP:  39;

ATMORE*          N/A    N/A N/A N/A CALM        N/A
ANDALUSIA/OPP  CLEAR     34  30  85 CALM      30.30F
6HR MIN TEMP:  33; 6HR MAX TEMP:  41;

ANDALUSIA*       N/A     36  32  87 W3        30.29F
FLORALA APT    CLEAR     37  32  82 CALM      30.33F
6HR MIN TEMP:  34; 6HR MAX TEMP:  38;

FLORALA*         N/A     30  30 100 CALM      31.07F

$$

FLZ001>006-110700-
WESTERN FLORIDA PANHANDLE

CITY           SKY/WX    TMP DP  RH WIND       PRES   REMARKS
PENSACOLA      CLEAR     44  37  76 NW5       30.31F
6HR MIN TEMP:  42; 6HR MAX TEMP:  48;

NAS PENSACOLA  CLEAR     36  34  92 NW3       30.31F
6HR MIN TEMP:  34; 6HR MAX TEMP:  46;

MILTON         CLEAR     32  32 100 CALM      30.31F
6HR MIN TEMP:  32; 6HR MAX TEMP:  41;

WHTNG S FIELD  CLEAR     38  34  85 CALM      30.31F
6HR MIN TEMP:  36; 6HR MAX TEMP:  47;



CITY           SKY/WX    TMP DP  RH WIND       PRES   REMARKS
JAY*             N/A     41  36  81 SW5       30.31F
DUKE FIELD     CLEAR     30  28  93 CALM      30.30F
CRESTVIEW      CLEAR     29  26  89 CALM      30.32F
6HR MIN TEMP:  28; 6HR MAX TEMP:  39;

VALPARAISO     CLEAR     39  33  81 NW7       30.31F
6HR MIN TEMP:  36; 6HR MAX TEMP:  46;

DESTIN         CLEAR     50  37  61 NW6       30.32F
6HR MIN TEMP:  43; 6HR MAX TEMP:  51;


$$

MSZ076-079-110700-
INTERIOR SOUTHEAST MISSISSIPPI

CITY           SKY/WX    TMP DP  RH WIND       PRES   REMARKS
LEAKESVILLE*     N/A     37  37 100 CALM      30.32S
AGRICOLA*        N/A     36  36 100 CALM      30.29F

$$

MARINE OBSERVATIONS

STATION/POSITION TIME  TEMP    WIND        PRES    WAVE
                       AIR SEA DIR/SP/G            HT/PER
                 (UTC) (F)     (DEG/KT/KT) (MB)    (FT/S)
PASCAGOULA       0548   47     280/  3/  3 1026.7F
PETIT BOIS ISLND 0548   54     280/  9/ 12 1027.5F
KATRINA CUT      0530   53     290/ 11     1027.1F
CEDAR POINT      0530   48     310/  4     1026.8F
E DAUPHIN ISLAND 0500   53     270/  7/  9 1026.9F
MIDDLE BAY LIGHT 0500   49     290/  8     1027.4
USCG MOBILE BAY  0548   43 56  270/  2/  3 1026.7F
STATE DOCKS      0548   44 57              1026.5F
MEAHER PARK      0530   50     250/  7     1026.4F
WEEKS BAY        0445   34                 1027.0S
FORT MORGAN      0548   53     300/ 11/ 12   N/A
12 S ORANGE BCH  NOT AVBL
PENSACOLA BAY    0548   47 54              1026.9F
64 S DAUPHIN ISL 0550   60 74  280/ 12/ 16 1027.0F   2/ 3
67 S FORT MORGAN 0530   58                 1026.4F

$$

SELECTED LOCATIONS ACROSS THE REGION

CITY           SKY/WX    TMP DP  RH WIND       PRES   REMARKS
NEW ORLEANS    CLEAR     41  36  82 SW3       30.34S
GULFPORT       MOCLDY    36  35  96 CALM      30.32F FOG
PASCAGOULA AP  CLEAR     33  31  92 CALM      30.32F
PASCAGOULA*      N/A     28  28 100 CALM        N/A
HATTIESBURG    CLEAR     32  32 100 CALM      30.32F
LAUREL         CLEAR     31  29  92 CALM      30.31F
MERIDIAN       CLEAR     32  30  92 S3        30.29F
JACKSON        CLEAR     39  29  67 S6        30.27S
MONTGOMERY     CLEAR     31  26  82 CALM      30.30S
TROY           CLEAR     28  28 100 CALM      30.30F
ASHFORD*         N/A     36  32  87 W3        30.29F
DOTHAN         CLEAR     34  30  85 SW5       30.34S WCI  30
PANAMA CITY    CLEAR     37  31  78 NW6       30.31F

$$




USA.gov is the U.S. government's official web portal to all federal, state and local government web resources and services.